DW7733 Weather Reports


Display with metric or nautical units.
time (UTC)temp
F
wind
direction
speed
MPH
gust
MPH
rain 1hr
in
rain 24hr
in
rain mn
in
humidity
%
barometer
mb
20260831144535 74 242 0.0 1.0 0.00 1.91 0.45 90 1015.6
20260831143030 74 242 0.0 1.0 0.00 1.91 0.45 83 1015.5
20260831141531 73 242 0.0 3.0 0.00 1.91 0.45 80 1015.5
20260831140025 73 217 0.0 3.0 0.00 1.91 0.45 65 1015.5
20260831134526 72 253 0.0 3.0 0.00 1.91 0.45 65 1015.4
20260831133021 71 143 0.0 3.0 0.00 1.91 0.45 65 1015.1
20260831131520 70 142 0.0 3.0 0.00 1.91 0.45 65 1015.1
20260831130013 69 138 0.0 2.0 0.02 1.91 0.45 66 1015.3
20260831124511 68 141 0.0 2.0 0.04 2.02 0.45 66 1015.3
20260831123016 68 145 0.0 1.0 0.05 2.02 0.45 66 1015.3
20260831121512 68 160 0.0 1.0 0.06 2.00 0.44 66 1015.1
20260831120010 67 161 0.0 1.0 0.06 2.00 0.43 66 1015.0
20260831114506 67 140 0.0 1.0 0.04 2.02 0.41 66 1015.3
20260831113007 67 146 0.0 2.0 0.15 2.02 0.40 67 1015.7
20260831111505 67 149 0.0 2.0 0.28 2.00 0.39 67 1015.7
20260831110004 67 134 0.0 2.0 0.31 1.99 0.38 67 1015.8
20260831104509 67 135 0.0 2.0 0.31 1.98 0.37 66 1015.8
20260831103100 67 135 0.0 3.0 0.27 1.91 0.28 67 1015.9
20260831101558 67 150 0.0 4.0 0.09 1.73 0.12 67 1015.6
20260831100112 67 149 0.0 2.0 0.04 1.68 0.06 67 1015.3
20260831094556 67 132 1.0 3.0 0.04 1.68 0.06 67 1015.3
20260831093100 66 158 0.0 4.0 0.00 1.64 0.02 67 1015.2
20260831091556 66 149 0.0 1.0 0.00 1.64 0.02 68 1015.3
20260831090108 66 135 0.0 2.0 0.00 1.64 0.02 68 1015.3
20260831084552 66 138 0.0 2.0 0.00 1.64 0.02 68 1015.4
20260831083105 66 147 1.0 3.0 0.00 1.64 0.02 68 1015.2
20260831081559 66 137 0.0 3.0 0.00 1.64 0.02 68 1015.2
20260831080122 66 125 0.0 4.0 0.02 1.64 0.02 69 1015.2
20260831074548 66 143 0.0 3.0 0.02 1.64 0.02 69 1015.2
20260831073047 65 137 0.0 3.0 0.02 1.64 0.02 69 1015.5
20260831071547 65 138 0.0 2.0 0.02 1.64 0.02 70 1015.6
20260831070042 65 141 0.0 2.0 0.01 1.62 0.01 71 1015.7
20260831064541 65 154 0.0 2.0 0.01 1.62 0.01 71 1015.7
20260831063041 65 185 0.0 2.0 0.00 1.61 0.00 72 1015.8
20260831061542 64 166 1.0 2.0 0.00 1.61 0.00 73 1015.8
20260831060038 64 190 0.0 2.0 0.00 1.61 0.00 74 1015.9
20260831054536 64 139 0.0 2.0 0.00 1.61 0.00 74 1016.0
20260831053057 64 152 0.0 4.0 0.00 1.61 0.00 75 1016.0
20260831051537 64 129 1.0 3.0 0.00 1.61 0.00 75 1016.0
20260831050032 64 150 0.0 3.0 0.00 1.61 0.00 75 1015.9
20260831044607 64 155 0.0 2.0 0.00 1.61 0.00 75 1016.1
20260831043031 63 126 0.0 4.0 0.00 1.61 0.00 75 1016.1
20260831041534 63 173 0.0 3.0 0.00 1.61 0.00 75 1016.2
20260831040028 63 165 0.0 2.0 0.00 1.61 0.00 75 1016.0
20260831034530 63 152 0.0 1.0 0.00 1.61 1.61 75 1015.9
20260831033032 63 143 0.0 2.0 0.00 1.61 1.61 75 1015.9
20260831031533 63 140 0.0 3.0 0.00 1.61 1.61 75 1015.9
20260831030025 63 167 0.0 3.0 0.00 1.61 1.61 75 1015.7
20260831024524 63 169 0.0 2.0 0.00 1.61 1.61 75 1015.9
20260831023024 63 189 1.0 2.0 0.00 1.61 1.61 75 1015.9
20260831021525 63 149 0.0 3.0 0.00 1.61 1.61 75 1016.0
20260831020022 63 145 0.0 3.0 0.00 1.61 1.61 75 1015.9
20260831014624 64 141 0.0 3.0 0.00 1.61 1.61 75 1016.0
20260831013021 64 188 0.0 3.0 0.00 1.61 1.61 75 1016.0
20260831011526 64 150 0.0 2.0 0.06 1.61 1.61 76 1016.0
20260831010021 64 179 1.0 0.0 0.00 0.00 1.61 75 1015.9
20260831004518 65 239 0.0 3.0 0.25 1.61 1.61 74 1016.1
20260831003020 65 147 0.0 2.0 0.28 1.61 1.61 74 1016.0
20260831001517 65 193 1.0 3.0 0.22 1.54 1.54 73 1016.2
20260831000020 66 191 0.0 3.0 0.14 1.44 1.44 72 1016.6
20260830234514 66 176 0.0 1.0 0.08 1.35 1.35 72 1016.9
20260830233014 66 219 0.0 4.0 0.06 1.33 1.33 72 1016.9
20260830231516 66 172 0.0 2.0 0.06 1.32 1.32 71 1016.8
20260830230013 66 239 0.0 1.0 0.03 1.30 1.30 71 1017.2
20260830224513 66 242 0.0 1.0 0.01 1.28 1.28 71 1017.3
20260830223013 66 238 0.0 1.0 0.03 1.27 1.27 71 1017.1
20260830221512 66 236 0.0 1.0 0.03 1.27 1.27 71 1017.1
20260830220011 66 198 0.0 1.0 0.06 1.27 1.27 72 1016.7
20260830214510 66 214 0.0 1.0 0.06 1.27 1.27 71 1016.5
20260830213011 66 132 0.0 1.0 0.05 1.24 1.24 71 1016.4
20260830211510 66 122 0.0 1.0 0.09 1.24 1.24 70 1016.1
20260830210007 65 15 0.0 2.0 0.09 1.21 1.21 71 1016.1
20260830204505 65 152 0.0 2.0 0.11 1.20 1.20 73 1016.4
20260830203007 65 133 1.0 3.0 0.13 1.18 1.18 75 1016.5
20260830201502 65 120 0.0 4.0 0.16 1.13 1.13 74 1016.6
20260830200100 64 121 0.0 3.0 0.17 1.12 1.12 75 1016.7
20260830194558 64 101 0.0 3.0 0.15 1.09 1.09 75 1017.0
20260830193058 64 141 0.0 3.0 0.11 1.06 1.06 76 1017.0
20260830191556 64 146 0.0 4.0 0.08 0.99 0.99 76 1016.9
20260830190055 64 129 1.0 4.0 0.06 0.96 0.96 76 1017.3
20260830184556 64 152 0.0 3.0 0.12 0.94 0.94 76 1017.3
20260830183052 64 98 0.0 4.0 0.14 0.94 0.94 77 1017.4
20260830181552 64 127 0.0 3.0 0.15 0.91 0.91 78 1017.4
20260830180050 64 183 0.0 2.0 0.17 0.90 0.90 78 1017.4
20260830174548 64 139 0.0 3.0 0.11 0.83 0.83 78 1017.6
20260830173048 65 130 0.0 2.0 0.16 0.80 0.80 78 1017.6
20260830171547 65 127 0.0 2.0 0.22 0.76 0.76 79 1018.0
20260830170045 65 129 0.0 1.0 0.31 0.73 0.73 79 1018.2
20260830164548 65 153 0.0 1.0 0.39 0.72 0.72 79 1018.2
20260830163045 64 43 0.0 1.0 0.44 0.65 0.65 81 1018.4
20260830161558 64 189 0.0 1.0 0.35 0.54 0.54 84 1018.5
20260830160045 65 226 0.0 3.0 0.23 0.42 0.42 84 1018.7
20260830154542 65 229 0.0 2.0 0.14 0.32 0.32 84 1018.9
20260830153040 66 239 0.0 2.0 0.03 0.20 0.20 82 1018.7
20260830151540 66 152 0.0 1.0 0.02 0.19 0.19 77 1018.2
20260830150108 65 152 0.0 2.0 0.02 0.18 0.18 77 1018.1